Year,Month,Day,Hour,Minute,Value (Times are PST for temperature in C)
2006,07,10,00,00,16.30
2006,07,10,00,01,16.30
2006,07,10,00,02,16.30
2006,07,10,00,03,16.30
2006,07,10,00,04,16.30
2006,07,10,00,05,16.30
2006,07,10,00,06,16.30
2006,07,10,00,07,16.30
2006,07,10,00,08,16.30
2006,07,10,00,09,16.30
2006,07,10,00,10,16.30
2006,07,10,00,11,16.40
2006,07,10,00,12,16.40
2006,07,10,00,13,16.40
2006,07,10,00,14,16.40
2006,07,10,00,15,16.40
2006,07,10,00,16,16.40
2006,07,10,00,17,16.40
2006,07,10,00,18,16.40
2006,07,10,00,19,16.40
2006,07,10,00,20,16.40
2006,07,10,00,21,16.40
2006,07,10,00,22,16.30
2006,07,10,00,23,16.30
2006,07,10,00,24,16.30
2006,07,10,00,25,16.30
2006,07,10,00,26,16.30
2006,07,10,00,27,16.30
2006,07,10,00,28,16.20
2006,07,10,00,29,16.20
2006,07,10,00,30,16.20
2006,07,10,00,31,16.20
2006,07,10,00,32,16.20
2006,07,10,00,33,16.10
2006,07,10,00,34,16.10
2006,07,10,00,35,16.10
2006,07,10,00,36,16.10
2006,07,10,00,37,16.10
2006,07,10,00,38,16.10
2006,07,10,00,39,16.10
2006,07,10,00,40,16.10
2006,07,10,00,41,16.10
2006,07,10,00,42,16.10
2006,07,10,00,43,16.10
2006,07,10,00,44,16.00
2006,07,10,00,45,15.90
2006,07,10,00,46,15.90
2006,07,10,00,47,15.80
2006,07,10,00,48,15.80
2006,07,10,00,49,15.80
2006,07,10,00,50,15.80
2006,07,10,00,51,15.80
2006,07,10,00,52,15.70
2006,07,10,00,53,15.70
2006,07,10,00,54,15.70
2006,07,10,00,55,15.60
2006,07,10,00,56,15.60
2006,07,10,00,57,15.50
2006,07,10,00,58,15.50
2006,07,10,00,59,15.40
2006,07,10,01,00,15.30
2006,07,10,01,01,15.30
2006,07,10,01,02,15.20
2006,07,10,01,03,15.10
2006,07,10,01,04,15.00
2006,07,10,01,05,14.90
2006,07,10,01,06,14.80
2006,07,10,01,07,14.70
2006,07,10,01,08,14.60
2006,07,10,01,09,14.50
2006,07,10,01,10,14.50
2006,07,10,01,11,14.50
2006,07,10,01,12,14.50
2006,07,10,01,13,14.50
2006,07,10,01,14,14.50
2006,07,10,01,15,14.50
2006,07,10,01,16,14.50
2006,07,10,01,17,14.50
2006,07,10,01,18,14.50
2006,07,10,01,19,14.50
2006,07,10,01,20,14.40
2006,07,10,01,21,14.40
2006,07,10,01,22,14.40
2006,07,10,01,23,14.40
2006,07,10,01,24,14.40
2006,07,10,01,25,14.50
2006,07,10,01,26,14.50
2006,07,10,01,27,14.50
2006,07,10,01,28,14.50
2006,07,10,01,29,14.50
2006,07,10,01,30,14.50
2006,07,10,01,31,14.50
2006,07,10,01,32,14.50
2006,07,10,01,33,14.40
2006,07,10,01,34,14.40
2006,07,10,01,35,14.40
2006,07,10,01,36,14.30
2006,07,10,01,37,14.30
2006,07,10,01,38,14.20
2006,07,10,01,39,14.20
2006,07,10,01,40,14.20
2006,07,10,01,41,14.20
2006,07,10,01,42,14.10
2006,07,10,01,43,14.10
2006,07,10,01,44,14.10
2006,07,10,01,45,14.00
2006,07,10,01,46,14.00
2006,07,10,01,47,14.00
2006,07,10,01,48,14.00
2006,07,10,01,49,13.90
2006,07,10,01,50,13.90
2006,07,10,01,51,13.90
2006,07,10,01,52,13.90
2006,07,10,01,53,13.90
2006,07,10,01,54,13.90
2006,07,10,01,55,13.90
2006,07,10,01,56,13.90
2006,07,10,01,57,13.90
2006,07,10,01,58,13.90
2006,07,10,01,59,13.80
2006,07,10,02,00,13.80
2006,07,10,02,01,13.80
2006,07,10,02,02,13.80
2006,07,10,02,03,13.70
2006,07,10,02,04,13.70
2006,07,10,02,05,13.70
2006,07,10,02,06,13.70
2006,07,10,02,07,13.70
2006,07,10,02,08,13.70
2006,07,10,02,09,13.70
2006,07,10,02,10,13.70
2006,07,10,02,11,13.70
2006,07,10,02,12,13.70
2006,07,10,02,13,13.70
2006,07,10,02,14,13.70
2006,07,10,02,15,13.60
2006,07,10,02,16,13.60
2006,07,10,02,17,13.60
2006,07,10,02,18,13.70
2006,07,10,02,19,13.70
2006,07,10,02,20,13.70
2006,07,10,02,21,13.70
2006,07,10,02,22,13.70
2006,07,10,02,23,13.70
2006,07,10,02,24,13.70
2006,07,10,02,25,13.70
2006,07,10,02,26,13.70
2006,07,10,02,27,13.70
2006,07,10,02,28,13.70
2006,07,10,02,29,13.70
2006,07,10,02,30,13.70
2006,07,10,02,31,13.70
2006,07,10,02,32,13.70
2006,07,10,02,33,13.60
2006,07,10,02,34,13.60
2006,07,10,02,35,13.60
2006,07,10,02,36,13.60
2006,07,10,02,37,13.60
2006,07,10,02,38,13.50
2006,07,10,02,39,13.50
2006,07,10,02,40,13.50
2006,07,10,02,41,13.50
2006,07,10,02,42,13.50
2006,07,10,02,43,13.40
2006,07,10,02,44,13.40
2006,07,10,02,45,13.40
2006,07,10,02,46,13.40
2006,07,10,02,47,13.40
2006,07,10,02,48,13.40
2006,07,10,02,49,13.40
2006,07,10,02,50,13.40
2006,07,10,02,51,13.40
2006,07,10,02,52,13.40
2006,07,10,02,53,13.40
2006,07,10,02,54,13.40
2006,07,10,02,55,13.40
2006,07,10,02,56,13.40
2006,07,10,02,57,13.40
2006,07,10,02,58,13.40
2006,07,10,02,59,13.40
2006,07,10,03,00,13.40
2006,07,10,03,01,13.40
2006,07,10,03,02,13.40
2006,07,10,03,03,13.40
2006,07,10,03,04,13.40
2006,07,10,03,05,13.40
2006,07,10,03,06,13.40
2006,07,10,03,07,13.40
2006,07,10,03,08,13.40
2006,07,10,03,09,13.30
2006,07,10,03,10,13.30
2006,07,10,03,11,13.30
2006,07,10,03,12,13.30
2006,07,10,03,13,13.30
2006,07,10,03,14,13.30
2006,07,10,03,15,13.30
2006,07,10,03,16,13.30
2006,07,10,03,17,13.30
2006,07,10,03,18,13.30
2006,07,10,03,19,13.20
2006,07,10,03,20,13.20
2006,07,10,03,21,13.20
2006,07,10,03,22,13.20
2006,07,10,03,23,13.20
2006,07,10,03,24,13.20
2006,07,10,03,25,13.20
2006,07,10,03,26,13.20
2006,07,10,03,27,13.20
2006,07,10,03,28,13.20
2006,07,10,03,29,13.10
2006,07,10,03,30,13.10
2006,07,10,03,31,13.10
2006,07,10,03,32,13.10
2006,07,10,03,33,13.10
2006,07,10,03,34,13.10
2006,07,10,03,35,13.10
2006,07,10,03,36,13.10
2006,07,10,03,37,13.10
2006,07,10,03,38,13.10
2006,07,10,03,39,13.10
2006,07,10,03,40,13.00
2006,07,10,03,41,13.00
2006,07,10,03,42,13.00
2006,07,10,03,43,13.00
2006,07,10,03,44,13.00
2006,07,10,03,45,13.00
2006,07,10,03,46,12.90
2006,07,10,03,47,12.90
2006,07,10,03,48,12.90
2006,07,10,03,49,12.90
2006,07,10,03,50,12.90
2006,07,10,03,51,12.90
2006,07,10,03,52,12.90
2006,07,10,03,53,12.90
2006,07,10,03,54,12.90
2006,07,10,03,55,12.90
2006,07,10,03,56,12.90
2006,07,10,03,57,12.90
2006,07,10,03,58,12.80
2006,07,10,03,59,12.80
2006,07,10,04,00,12.80
2006,07,10,04,01,12.80
2006,07,10,04,02,12.80
2006,07,10,04,03,12.80
2006,07,10,04,04,12.80
2006,07,10,04,05,12.80
2006,07,10,04,06,12.80
2006,07,10,04,07,12.80
2006,07,10,04,08,12.80
2006,07,10,04,09,12.80
2006,07,10,04,10,12.80
2006,07,10,04,11,12.80
2006,07,10,04,12,12.80
2006,07,10,04,13,12.80
2006,07,10,04,14,12.80
2006,07,10,04,15,12.80
2006,07,10,04,16,12.80
2006,07,10,04,17,12.80
2006,07,10,04,18,12.80
2006,07,10,04,19,12.80
2006,07,10,04,20,12.80
2006,07,10,04,21,12.80
2006,07,10,04,22,12.80
2006,07,10,04,23,12.80
2006,07,10,04,24,12.80
2006,07,10,04,25,12.80
2006,07,10,04,26,12.80
2006,07,10,04,27,12.80
2006,07,10,04,28,12.80
2006,07,10,04,29,12.80
2006,07,10,04,30,12.80
2006,07,10,04,31,12.80
2006,07,10,04,32,12.80
2006,07,10,04,33,12.80
2006,07,10,04,34,12.80
2006,07,10,04,35,12.80
2006,07,10,04,36,12.80
2006,07,10,04,37,12.80
2006,07,10,04,38,12.80
2006,07,10,04,39,12.80
2006,07,10,04,40,12.80
2006,07,10,04,41,12.80
2006,07,10,04,42,12.80
2006,07,10,04,43,12.80
2006,07,10,04,44,12.80
2006,07,10,04,45,12.80
2006,07,10,04,46,12.80
2006,07,10,04,47,12.80
2006,07,10,04,48,12.80
2006,07,10,04,49,12.80
2006,07,10,04,50,12.80
2006,07,10,04,51,12.80
2006,07,10,04,52,12.80
2006,07,10,04,53,12.80
2006,07,10,04,54,12.80
2006,07,10,04,55,12.80
2006,07,10,04,56,12.80
2006,07,10,04,57,12.80
2006,07,10,04,58,12.80
2006,07,10,04,59,12.80
2006,07,10,05,00,12.80
2006,07,10,05,01,12.80
2006,07,10,05,02,12.80
2006,07,10,05,03,12.80
2006,07,10,05,04,12.80
2006,07,10,05,05,12.80
2006,07,10,05,06,12.80
2006,07,10,05,07,12.80
2006,07,10,05,08,12.80
2006,07,10,05,09,12.80
2006,07,10,05,10,12.80
2006,07,10,05,11,12.80
2006,07,10,05,12,12.80
2006,07,10,05,13,12.80
2006,07,10,05,14,12.80
2006,07,10,05,15,12.80
2006,07,10,05,16,12.70
2006,07,10,05,17,12.70
2006,07,10,05,18,12.70
2006,07,10,05,19,12.70
2006,07,10,05,20,12.70
2006,07,10,05,21,12.70
2006,07,10,05,22,12.70
2006,07,10,05,23,12.70
2006,07,10,05,24,12.60
2006,07,10,05,25,12.60
2006,07,10,05,26,12.60
2006,07,10,05,27,12.60
2006,07,10,05,28,12.60
2006,07,10,05,29,12.60
2006,07,10,05,30,12.60
2006,07,10,05,31,12.60
2006,07,10,05,32,12.60
2006,07,10,05,33,12.60
2006,07,10,05,34,12.60
2006,07,10,05,35,12.60
2006,07,10,05,36,12.50
2006,07,10,05,37,12.50
2006,07,10,05,38,12.50
2006,07,10,05,39,12.50
2006,07,10,05,40,12.50
2006,07,10,05,41,12.60
2006,07,10,05,42,12.60
2006,07,10,05,43,12.60
2006,07,10,05,44,12.60
2006,07,10,05,45,12.60
2006,07,10,05,46,12.60
2006,07,10,05,47,12.60
2006,07,10,05,48,12.60
2006,07,10,05,49,12.60
2006,07,10,05,50,12.60
2006,07,10,05,51,12.60
2006,07,10,05,52,12.60
2006,07,10,05,53,12.60
2006,07,10,05,54,12.60
2006,07,10,05,55,12.60
2006,07,10,05,56,12.60
2006,07,10,05,57,12.60
2006,07,10,05,58,12.60
2006,07,10,05,59,12.60
2006,07,10,06,00,12.70
2006,07,10,06,01,12.70
2006,07,10,06,02,12.70
2006,07,10,06,03,12.70
2006,07,10,06,04,12.80
2006,07,10,06,05,12.80
2006,07,10,06,06,12.80
2006,07,10,06,07,12.80
2006,07,10,06,08,12.80
2006,07,10,06,09,12.90
2006,07,10,06,10,12.90
2006,07,10,06,11,12.90
2006,07,10,06,12,12.90
2006,07,10,06,13,13.00
2006,07,10,06,14,13.00
2006,07,10,06,15,13.00
2006,07,10,06,16,13.00
2006,07,10,06,17,13.10
2006,07,10,06,18,13.10
2006,07,10,06,19,13.10
2006,07,10,06,20,13.10
2006,07,10,06,21,13.20
2006,07,10,06,22,13.20
2006,07,10,06,23,13.20
2006,07,10,06,24,13.30
2006,07,10,06,25,13.30
2006,07,10,06,26,13.30
2006,07,10,06,27,13.30
2006,07,10,06,28,13.40
2006,07,10,06,29,13.40
2006,07,10,06,30,13.40
2006,07,10,06,31,13.50
2006,07,10,06,32,13.50
2006,07,10,06,33,13.50
2006,07,10,06,34,13.60
2006,07,10,06,35,13.60
2006,07,10,06,36,13.60
2006,07,10,06,37,13.60
2006,07,10,06,38,13.70
2006,07,10,06,39,13.70
2006,07,10,06,40,13.70
2006,07,10,06,41,13.70
2006,07,10,06,42,13.70
2006,07,10,06,43,13.70
2006,07,10,06,44,13.70
2006,07,10,06,45,13.70
2006,07,10,06,46,13.80
2006,07,10,06,47,13.80
2006,07,10,06,48,13.80
2006,07,10,06,49,13.80
2006,07,10,06,50,13.90
2006,07,10,06,51,13.90
2006,07,10,06,52,13.90
2006,07,10,06,53,13.90
2006,07,10,06,54,13.90
2006,07,10,06,55,13.90
2006,07,10,06,56,14.00
2006,07,10,06,57,14.00
2006,07,10,06,58,14.00
2006,07,10,06,59,14.00
2006,07,10,07,00,14.10
2006,07,10,07,01,14.10
2006,07,10,07,02,14.10
2006,07,10,07,03,14.10
2006,07,10,07,04,14.10
2006,07,10,07,05,14.20
2006,07,10,07,06,14.20
2006,07,10,07,07,14.20
2006,07,10,07,08,14.20
2006,07,10,07,09,14.30
2006,07,10,07,10,14.30
2006,07,10,07,11,14.40
2006,07,10,07,12,14.40
2006,07,10,07,13,14.40
2006,07,10,07,14,14.50
2006,07,10,07,15,14.50
2006,07,10,07,16,14.50
2006,07,10,07,17,14.50
2006,07,10,07,18,14.50
2006,07,10,07,19,14.50
2006,07,10,07,20,14.50
2006,07,10,07,21,14.50
2006,07,10,07,22,14.50
2006,07,10,07,23,14.50
2006,07,10,07,24,14.50
2006,07,10,07,25,14.50
2006,07,10,07,26,14.50
2006,07,10,07,27,14.50
2006,07,10,07,28,14.50
2006,07,10,07,29,14.50
2006,07,10,07,30,14.50
2006,07,10,07,31,14.50
2006,07,10,07,32,14.60
2006,07,10,07,33,14.60
2006,07,10,07,34,14.60
2006,07,10,07,35,14.70
2006,07,10,07,36,14.80
2006,07,10,07,37,14.80
2006,07,10,07,38,14.90
2006,07,10,07,39,15.00
2006,07,10,07,40,15.00
2006,07,10,07,41,15.10
2006,07,10,07,42,15.10
2006,07,10,07,43,15.20
2006,07,10,07,44,15.20
2006,07,10,07,45,15.30
2006,07,10,07,46,15.30
2006,07,10,07,47,15.30
2006,07,10,07,48,15.30
2006,07,10,07,49,15.30
2006,07,10,07,50,15.30
2006,07,10,07,51,15.40
2006,07,10,07,52,15.40
2006,07,10,07,53,15.50
2006,07,10,07,54,15.50
2006,07,10,07,55,15.60
2006,07,10,07,56,15.60
2006,07,10,07,57,15.60
2006,07,10,07,58,15.70
2006,07,10,07,59,15.80
2006,07,10,08,00,15.80
2006,07,10,08,01,15.80
2006,07,10,08,02,15.80
2006,07,10,08,03,15.80
2006,07,10,08,04,15.80
2006,07,10,08,05,15.90
2006,07,10,08,06,15.90
2006,07,10,08,07,16.00
2006,07,10,08,08,16.10
2006,07,10,08,09,16.10
2006,07,10,08,10,16.20
2006,07,10,08,11,16.20
2006,07,10,08,12,16.20
2006,07,10,08,13,16.30
2006,07,10,08,14,16.40
2006,07,10,08,15,16.40
2006,07,10,08,16,16.40
2006,07,10,08,17,16.50
2006,07,10,08,18,16.60
2006,07,10,08,19,16.60
2006,07,10,08,20,16.60
2006,07,10,08,21,16.60
2006,07,10,08,22,16.60
2006,07,10,08,23,16.70
2006,07,10,08,24,16.70
2006,07,10,08,25,16.70
2006,07,10,08,26,16.70
2006,07,10,08,27,16.70
2006,07,10,08,28,16.80
2006,07,10,08,29,16.90
2006,07,10,08,30,16.90
2006,07,10,08,31,17.00
2006,07,10,08,32,17.10
2006,07,10,08,33,17.10
2006,07,10,08,34,17.10
2006,07,10,08,35,17.10
2006,07,10,08,36,17.10
2006,07,10,08,37,17.10
2006,07,10,08,38,17.10
2006,07,10,08,39,17.20
2006,07,10,08,40,17.20
2006,07,10,08,41,17.30
2006,07,10,08,42,17.30
2006,07,10,08,43,17.30
2006,07,10,08,44,17.30
2006,07,10,08,45,17.30
2006,07,10,08,46,17.30
2006,07,10,08,47,17.30
2006,07,10,08,48,17.30
2006,07,10,08,49,17.30
2006,07,10,08,50,17.30
2006,07,10,08,51,17.30
2006,07,10,08,52,17.30
2006,07,10,08,53,17.40
2006,07,10,08,54,17.40
2006,07,10,08,55,17.40
2006,07,10,08,56,17.30
2006,07,10,08,57,17.30
2006,07,10,08,58,17.40
2006,07,10,08,59,17.40
2006,07,10,09,00,17.40
2006,07,10,09,01,17.40
2006,07,10,09,02,17.40
2006,07,10,09,03,17.50
2006,07,10,09,04,17.50
2006,07,10,09,05,17.60
2006,07,10,09,06,17.60
2006,07,10,09,07,17.60
2006,07,10,09,08,17.70
2006,07,10,09,09,17.70
2006,07,10,09,10,17.70
2006,07,10,09,11,17.80
2006,07,10,09,12,17.80
2006,07,10,09,13,17.90
2006,07,10,09,14,17.90
2006,07,10,09,15,17.90
2006,07,10,09,16,17.90
2006,07,10,09,17,17.90
2006,07,10,09,18,17.90
2006,07,10,09,19,17.90
2006,07,10,09,20,18.10
2006,07,10,09,21,18.10
2006,07,10,09,22,18.20
2006,07,10,09,23,18.20
2006,07,10,09,24,18.10
2006,07,10,09,25,18.10
2006,07,10,09,26,18.10
2006,07,10,09,27,18.10
2006,07,10,09,28,18.10
2006,07,10,09,29,18.20
2006,07,10,09,30,18.20
2006,07,10,09,31,18.40
2006,07,10,09,32,18.40
2006,07,10,09,33,18.50
2006,07,10,09,34,18.50
2006,07,10,09,35,18.50
2006,07,10,09,36,18.40
2006,07,10,09,37,18.30
2006,07,10,09,38,18.30
2006,07,10,09,39,18.30
2006,07,10,09,40,18.40
2006,07,10,09,41,18.50
2006,07,10,09,42,18.50
2006,07,10,09,43,18.50
2006,07,10,09,44,18.40
2006,07,10,09,45,18.30
2006,07,10,09,46,18.20
2006,07,10,09,47,18.10
2006,07,10,09,48,18.20
2006,07,10,09,49,18.20
2006,07,10,09,50,18.10
2006,07,10,09,51,18.00
2006,07,10,09,52,17.90
2006,07,10,09,53,17.80
2006,07,10,09,54,17.80
2006,07,10,09,55,17.90
2006,07,10,09,56,17.90
2006,07,10,09,57,17.80
2006,07,10,09,58,17.70
2006,07,10,09,59,17.70
2006,07,10,10,00,17.70
2006,07,10,10,01,17.70
2006,07,10,10,02,17.70
2006,07,10,10,03,17.80
2006,07,10,10,04,17.80
2006,07,10,10,05,17.80
2006,07,10,10,06,17.70
2006,07,10,10,07,17.70
2006,07,10,10,08,17.80
2006,07,10,10,09,17.90
2006,07,10,10,10,17.90
2006,07,10,10,11,17.80
2006,07,10,10,12,17.90
2006,07,10,10,13,17.90
2006,07,10,10,14,17.90
2006,07,10,10,15,17.80
2006,07,10,10,16,17.80
2006,07,10,10,17,17.90
2006,07,10,10,18,17.90
2006,07,10,10,19,17.90
2006,07,10,10,20,17.90
2006,07,10,10,21,17.90
2006,07,10,10,22,17.90
2006,07,10,10,23,17.90
2006,07,10,10,24,17.90
2006,07,10,10,25,17.90
2006,07,10,10,26,17.90
2006,07,10,10,27,17.80
2006,07,10,10,28,17.90
2006,07,10,10,29,17.90
2006,07,10,10,30,17.90
2006,07,10,10,31,17.90
2006,07,10,10,32,17.90
2006,07,10,10,33,18.00
2006,07,10,10,34,18.10
2006,07,10,10,35,18.20
2006,07,10,10,36,18.20
2006,07,10,10,37,18.30
2006,07,10,10,38,18.40
2006,07,10,10,39,18.40
2006,07,10,10,40,18.40
2006,07,10,10,41,18.40
2006,07,10,10,42,18.40
2006,07,10,10,43,18.30
2006,07,10,10,44,18.10
2006,07,10,10,45,17.90
2006,07,10,10,46,18.00
2006,07,10,10,47,18.10
2006,07,10,10,48,18.10
2006,07,10,10,49,18.20
2006,07,10,10,50,18.20
2006,07,10,10,51,18.20
2006,07,10,10,52,18.20
2006,07,10,10,53,18.30
2006,07,10,10,54,18.30
2006,07,10,10,55,18.30
2006,07,10,10,56,18.20
2006,07,10,10,57,18.20
2006,07,10,10,58,18.20
2006,07,10,10,59,18.30
2006,07,10,11,00,18.40
2006,07,10,11,01,18.40
2006,07,10,11,02,18.40
2006,07,10,11,03,18.40
2006,07,10,11,04,18.40
2006,07,10,11,05,18.40
2006,07,10,11,06,18.50
2006,07,10,11,07,18.50
2006,07,10,11,08,18.60
2006,07,10,11,09,18.80
2006,07,10,11,10,18.80
2006,07,10,11,11,18.90
2006,07,10,11,12,18.90
2006,07,10,11,13,18.90
2006,07,10,11,14,18.90
2006,07,10,11,15,18.90
2006,07,10,11,16,19.00
2006,07,10,11,17,19.00
2006,07,10,11,18,18.90
2006,07,10,11,19,18.70
2006,07,10,11,20,18.70
2006,07,10,11,21,18.70
2006,07,10,11,22,18.80
2006,07,10,11,23,18.70
2006,07,10,11,24,18.50
2006,07,10,11,25,18.40
2006,07,10,11,26,18.30
2006,07,10,11,27,18.20
2006,07,10,11,28,18.20
2006,07,10,11,29,18.20
2006,07,10,11,30,18.20
2006,07,10,11,31,18.20
2006,07,10,11,32,18.20
2006,07,10,11,33,18.20
2006,07,10,11,34,18.20
2006,07,10,11,35,18.20
2006,07,10,11,36,18.20
2006,07,10,11,37,18.10
2006,07,10,11,38,18.10
2006,07,10,11,39,18.00
2006,07,10,11,40,17.90
2006,07,10,11,41,17.90
2006,07,10,11,42,17.90
2006,07,10,11,43,18.00
2006,07,10,11,44,18.00
2006,07,10,11,45,18.00
2006,07,10,11,46,18.10
2006,07,10,11,47,18.20
2006,07,10,11,48,18.30
2006,07,10,11,49,18.50
2006,07,10,11,50,18.60
2006,07,10,11,51,18.70
2006,07,10,11,52,18.80
2006,07,10,11,53,18.70
2006,07,10,11,54,18.60
2006,07,10,11,55,18.60
2006,07,10,11,56,18.50
2006,07,10,11,57,18.50
2006,07,10,11,58,18.50
2006,07,10,11,59,18.50
2006,07,10,12,00,18.60
2006,07,10,12,01,18.80
2006,07,10,12,02,19.00
2006,07,10,12,03,19.10
2006,07,10,12,04,19.10
2006,07,10,12,05,19.10
2006,07,10,12,06,19.10
2006,07,10,12,07,19.10
2006,07,10,12,08,19.10
2006,07,10,12,09,19.10
2006,07,10,12,10,19.10
2006,07,10,12,11,19.10
2006,07,10,12,12,19.10
2006,07,10,12,13,19.10
2006,07,10,12,14,19.10
2006,07,10,12,15,19.10
2006,07,10,12,16,19.10
2006,07,10,12,17,19.10
2006,07,10,12,18,19.10
2006,07,10,12,19,19.20
2006,07,10,12,20,19.30
2006,07,10,12,21,19.30
2006,07,10,12,22,19.30
2006,07,10,12,23,19.30
2006,07,10,12,24,19.30
2006,07,10,12,25,19.30
2006,07,10,12,26,19.20
2006,07,10,12,27,19.30
2006,07,10,12,28,19.30
2006,07,10,12,29,19.40
2006,07,10,12,30,19.50
2006,07,10,12,31,19.50
2006,07,10,12,32,19.50
2006,07,10,12,33,19.60
2006,07,10,12,34,19.60
2006,07,10,12,35,19.70
2006,07,10,12,36,19.70
2006,07,10,12,37,19.70
2006,07,10,12,38,19.60
2006,07,10,12,39,19.60
2006,07,10,12,40,19.70
2006,07,10,12,41,19.70
2006,07,10,12,42,19.70
2006,07,10,12,43,19.70
2006,07,10,12,44,19.70
2006,07,10,12,45,19.60
2006,07,10,12,46,19.60
2006,07,10,12,47,19.70
2006,07,10,12,48,19.90
2006,07,10,12,49,19.90
2006,07,10,12,50,19.90
2006,07,10,12,51,19.90
2006,07,10,12,52,19.80
2006,07,10,12,53,19.80
2006,07,10,12,54,19.70
2006,07,10,12,55,19.70
2006,07,10,12,56,19.70
2006,07,10,12,57,19.70
2006,07,10,12,58,19.80
2006,07,10,12,59,19.60
2006,07,10,13,00,19.60
2006,07,10,13,01,19.60
2006,07,10,13,02,19.70
2006,07,10,13,03,19.70
2006,07,10,13,04,19.80
2006,07,10,13,05,19.90
2006,07,10,13,06,19.90
2006,07,10,13,07,19.90
2006,07,10,13,08,19.90
2006,07,10,13,09,19.80
2006,07,10,13,10,19.90
2006,07,10,13,11,20.00
2006,07,10,13,12,20.10
2006,07,10,13,13,20.10
2006,07,10,13,14,20.20
2006,07,10,13,15,20.20
2006,07,10,13,16,20.20
2006,07,10,13,17,20.20
2006,07,10,13,18,20.20
2006,07,10,13,19,20.30
2006,07,10,13,20,20.30
2006,07,10,13,21,20.30
2006,07,10,13,22,20.30
2006,07,10,13,23,20.30
2006,07,10,13,24,20.20
2006,07,10,13,25,20.20
2006,07,10,13,26,20.40
2006,07,10,13,27,20.40
2006,07,10,13,28,20.40
2006,07,10,13,29,20.40
2006,07,10,13,30,20.40
2006,07,10,13,31,20.40
2006,07,10,13,32,20.50
2006,07,10,13,33,20.50
2006,07,10,13,34,20.40
2006,07,10,13,35,20.10
2006,07,10,13,36,19.90
2006,07,10,13,37,19.90
2006,07,10,13,38,20.10
2006,07,10,13,39,20.20
2006,07,10,13,40,20.20
2006,07,10,13,41,20.20
2006,07,10,13,42,20.10
2006,07,10,13,43,20.10
2006,07,10,13,44,20.20
2006,07,10,13,45,20.20
2006,07,10,13,46,20.20
2006,07,10,13,47,20.20
2006,07,10,13,48,20.20
2006,07,10,13,49,20.20
2006,07,10,13,50,20.20
2006,07,10,13,51,20.30
2006,07,10,13,52,20.30
2006,07,10,13,53,20.20
2006,07,10,13,54,20.10
2006,07,10,13,55,20.10
2006,07,10,13,56,20.20
2006,07,10,13,57,20.30
2006,07,10,13,58,20.30
2006,07,10,13,59,20.30
2006,07,10,14,00,20.40
2006,07,10,14,01,20.40
2006,07,10,14,02,20.20
2006,07,10,14,03,20.10
2006,07,10,14,04,20.10
2006,07,10,14,05,20.10
2006,07,10,14,06,20.20
2006,07,10,14,07,20.20
2006,07,10,14,08,20.20
2006,07,10,14,09,20.30
2006,07,10,14,10,20.30
2006,07,10,14,11,20.30
2006,07,10,14,12,20.40
2006,07,10,14,13,20.50
2006,07,10,14,14,20.60
2006,07,10,14,15,20.60
2006,07,10,14,16,20.70
2006,07,10,14,17,20.60
2006,07,10,14,18,20.50
2006,07,10,14,19,20.30
2006,07,10,14,20,20.30
2006,07,10,14,21,20.40
2006,07,10,14,22,20.40
2006,07,10,14,23,20.30
2006,07,10,14,24,20.50
2006,07,10,14,25,20.70
2006,07,10,14,26,20.80
2006,07,10,14,27,21.00
2006,07,10,14,28,21.00
2006,07,10,14,29,21.00
2006,07,10,14,30,20.90
2006,07,10,14,31,20.80
2006,07,10,14,32,20.70
2006,07,10,14,33,20.60
2006,07,10,14,34,20.60
2006,07,10,14,35,20.60
2006,07,10,14,36,20.60
2006,07,10,14,37,20.70
2006,07,10,14,38,20.80
2006,07,10,14,39,20.80
2006,07,10,14,40,20.80
2006,07,10,14,41,20.70
2006,07,10,14,42,20.60
2006,07,10,14,43,20.50
2006,07,10,14,44,20.50
2006,07,10,14,45,20.50
2006,07,10,14,46,20.60
2006,07,10,14,47,20.70
2006,07,10,14,48,20.70
2006,07,10,14,49,20.70
2006,07,10,14,50,20.60
2006,07,10,14,51,20.50
2006,07,10,14,52,20.50
2006,07,10,14,53,20.40
2006,07,10,14,54,20.40
2006,07,10,14,55,20.50
2006,07,10,14,56,20.70
2006,07,10,14,57,20.80
2006,07,10,14,58,20.90
2006,07,10,14,59,20.90
2006,07,10,15,00,20.90
2006,07,10,15,01,20.90
2006,07,10,15,02,20.90
2006,07,10,15,03,20.80
2006,07,10,15,04,20.80
2006,07,10,15,05,20.90
2006,07,10,15,06,20.90
2006,07,10,15,07,21.00
2006,07,10,15,08,20.90
2006,07,10,15,09,20.80
2006,07,10,15,10,20.70
2006,07,10,15,11,20.60
2006,07,10,15,12,20.60
2006,07,10,15,13,20.60
2006,07,10,15,14,20.50
2006,07,10,15,15,20.50
2006,07,10,15,16,20.60
2006,07,10,15,17,20.70
2006,07,10,15,18,20.60
2006,07,10,15,19,20.70
2006,07,10,15,20,20.60
2006,07,10,15,21,20.50
2006,07,10,15,22,20.40
2006,07,10,15,23,20.50
2006,07,10,15,24,20.50
2006,07,10,15,25,20.50
2006,07,10,15,26,20.60
2006,07,10,15,27,20.60
2006,07,10,15,28,20.50
2006,07,10,15,29,20.50
2006,07,10,15,30,20.50
2006,07,10,15,31,20.60
2006,07,10,15,32,20.70
2006,07,10,15,33,20.80
2006,07,10,15,34,20.90
2006,07,10,15,35,21.00
2006,07,10,15,36,20.90
2006,07,10,15,37,21.00
2006,07,10,15,38,21.00
2006,07,10,15,39,21.00
2006,07,10,15,40,21.00
2006,07,10,15,41,20.90
2006,07,10,15,42,20.80
2006,07,10,15,43,20.70
2006,07,10,15,44,20.60
2006,07,10,15,45,20.60
2006,07,10,15,46,20.70
2006,07,10,15,47,20.70
2006,07,10,15,48,20.60
2006,07,10,15,49,20.40
2006,07,10,15,50,20.30
2006,07,10,15,51,20.30
2006,07,10,15,52,20.40
2006,07,10,15,53,20.40
2006,07,10,15,54,20.50
2006,07,10,15,55,20.50
2006,07,10,15,56,20.60
2006,07,10,15,57,20.70
2006,07,10,15,58,20.60
2006,07,10,15,59,20.50
2006,07,10,16,00,20.50
2006,07,10,16,01,20.50
2006,07,10,16,02,20.70
2006,07,10,16,03,20.80
2006,07,10,16,04,21.00
2006,07,10,16,05,20.90
2006,07,10,16,06,20.80
2006,07,10,16,07,20.70
2006,07,10,16,08,20.70
2006,07,10,16,09,20.80
2006,07,10,16,10,20.80
2006,07,10,16,11,20.80
2006,07,10,16,12,20.60
2006,07,10,16,13,20.60
2006,07,10,16,14,20.60
2006,07,10,16,15,20.60
2006,07,10,16,16,20.60
2006,07,10,16,17,20.70
2006,07,10,16,18,20.70
2006,07,10,16,19,20.80
2006,07,10,16,20,20.60
2006,07,10,16,21,20.40
2006,07,10,16,22,20.30
2006,07,10,16,23,20.40
2006,07,10,16,24,20.40
2006,07,10,16,25,20.40
2006,07,10,16,26,20.50
2006,07,10,16,27,20.50
2006,07,10,16,28,20.60
2006,07,10,16,29,20.60
2006,07,10,16,30,20.60
2006,07,10,16,31,20.60
2006,07,10,16,32,20.50
2006,07,10,16,33,20.50
2006,07,10,16,34,20.30
2006,07,10,16,35,20.20
2006,07,10,16,36,20.30
2006,07,10,16,37,20.30
2006,07,10,16,38,20.30
2006,07,10,16,39,20.30
2006,07,10,16,40,20.40
2006,07,10,16,41,20.50
2006,07,10,16,42,20.60
2006,07,10,16,43,20.50
2006,07,10,16,44,20.40
2006,07,10,16,45,20.30
2006,07,10,16,46,20.30
2006,07,10,16,47,20.30
2006,07,10,16,48,20.30
2006,07,10,16,49,20.30
2006,07,10,16,50,20.20
2006,07,10,16,51,20.20
2006,07,10,16,52,20.20
2006,07,10,16,53,20.30
2006,07,10,16,54,20.30
2006,07,10,16,55,20.30
2006,07,10,16,56,20.40
2006,07,10,16,57,20.30
2006,07,10,16,58,20.30
2006,07,10,16,59,20.20
2006,07,10,17,00,20.20
2006,07,10,17,01,20.20
2006,07,10,17,02,20.20
2006,07,10,17,03,20.20
2006,07,10,17,04,20.20
2006,07,10,17,05,20.30
2006,07,10,17,06,20.30
2006,07,10,17,07,20.30
2006,07,10,17,08,20.20
2006,07,10,17,09,20.20
2006,07,10,17,10,20.20
2006,07,10,17,11,20.30
2006,07,10,17,12,20.20
2006,07,10,17,13,20.20
2006,07,10,17,14,20.20
2006,07,10,17,15,20.10
2006,07,10,17,16,20.00
2006,07,10,17,17,19.90
2006,07,10,17,18,19.90
2006,07,10,17,19,19.90